• In United Kingdom
  • List of Countries
  • For 7 days
  • Water Temperature
  • Satellite Maps
  • Weather Map
  • Weather Widgets
  • user-avatar
    Login

    Hourly Weather Rio Branco

    Today, 14 November, Wednesday

    Time Temperature Precipitation Wind Pressure Humidity
    00:00 +26°C° 0.7 mm 1 mps 743 mmHg 98%
    01:00 +25°C° 0 mm 1 mps 743 mmHg 98%
    02:00 +25°C° 0.6 mm 1 mps 744 mmHg 98%
    03:00 +25°C° 0.6 mm 1 mps 744 mmHg 98%
    04:00 +25°C° 0.6 mm 1 mps 744 mmHg 98%
    05:00 +26°C° 0.9 mm 1 mps 744 mmHg 97%
    06:00 +26°C° 0.9 mm 1 mps 745 mmHg 96%
    07:00 +24°C° 0 mm 0 mps 746 mmHg 94%
    08:00 +27°C° 0.1 mm 1 mps 745 mmHg 89%
    09:00 +28°C° 0.1 mm 1 mps 745 mmHg 84%
    10:00 +29°C° 0.1 mm 1 mps 745 mmHg 78%
    11:00 +30°C° 0.6 mm 1 mps 745 mmHg 79%
    12:00 +30°C° 0.6 mm 1 mps 744 mmHg 80%
    13:00 +31°C° 0.6 mm 2 mps 744 mmHg 80%
    14:00 +30°C° 1.5 mm 1 mps 743 mmHg 83%
    15:00 +29°C° 1.5 mm 1 mps 743 mmHg 86%
    16:00 +28°C° 1.5 mm 1 mps 743 mmHg 89%
    17:00 +28°C° 0.5 mm 1 mps 743 mmHg 91%
    18:00 +27°C° 0.5 mm 1 mps 743 mmHg 93%
    19:00 +26°C° 0.5 mm 1 mps 744 mmHg 96%
    20:00 +26°C° 0.2 mm 1 mps 744 mmHg 96%
    21:00 +26°C° 0.2 mm 1 mps 744 mmHg 97%
    22:00 +26°C° 0.2 mm 1 mps 745 mmHg 97%
    23:00 +25°C° 0.3 mm 1 mps 744 mmHg 97%

    Tomorrow, 15 November, Thursday

    Time Temperature Precipitation Wind Pressure Humidity
    00:00 +25°C° 0.3 mm 1 mps 744 mmHg 97%
    01:00 +25°C° 0.3 mm 1 mps 744 mmHg 97%
    02:00 +25°C° 0.6 mm 1 mps 744 mmHg 98%
    03:00 +25°C° 0.6 mm 1 mps 744 mmHg 98%
    04:00 +25°C° 0.6 mm 1 mps 744 mmHg 98%
    05:00 +25°C° 0.9 mm 1 mps 744 mmHg 98%
    06:00 +25°C° 0.9 mm 1 mps 745 mmHg 97%
    07:00 +25°C° 0.9 mm 1 mps 745 mmHg 97%
    08:00 +27°C° 0.3 mm 1 mps 745 mmHg 90%
    09:00 +28°C° 0.3 mm 1 mps 745 mmHg 84%
    10:00 +29°C° 0.3 mm 1 mps 746 mmHg 77%
    11:00 +29°C° 0.4 mm 1 mps 745 mmHg 78%
    12:00 +30°C° 0.4 mm 1 mps 744 mmHg 80%
    13:00 +30°C° 0.4 mm 1 mps 744 mmHg 81%
    14:00 +30°C° 0.6 mm 1 mps 743 mmHg 82%
    15:00 +29°C° 0.6 mm 1 mps 743 mmHg 83%
    16:00 +27°C° 0.6 mm 0 mps 742 mmHg 83%
    17:00 +26°C° 0 mm 0 mps 742 mmHg 85%
    18:00 +25°C° 0 mm 0 mps 743 mmHg 88%
    19:00 +24°C° 0 mm 0 mps 743 mmHg 90%
    20:00 +24°C° 0 mm 0 mps 744 mmHg 90%
    21:00 +24°C° 0 mm 0 mps 744 mmHg 90%
    22:00 +26°C° 0 mm 1 mps 744 mmHg 91%
    23:00 +25°C° 0 mm 1 mps 744 mmHg 92%

    Day after tomorrow, 16 November, Friday

    Time Temperature Precipitation Wind Pressure Humidity
    00:00 +25°C° 0 mm 1 mps 744 mmHg 93%
    01:00 +25°C° 0 mm 1 mps 743 mmHg 94%
    02:00 +25°C° 0 mm 1 mps 743 mmHg 95%
    03:00 +25°C° 0 mm 1 mps 743 mmHg 96%
    04:00 +24°C° 0 mm 1 mps 743 mmHg 97%
    05:00 +25°C° 0 mm 1 mps 743 mmHg 93%
    06:00 +24°C° 0 mm 0 mps 744 mmHg 89%
    07:00 +25°C° 0 mm 0 mps 745 mmHg 85%
    08:00 +27°C° 0 mm 0 mps 745 mmHg 75%
    09:00 +30°C° 0 mm 0 mps 745 mmHg 65%
    10:00 +32°C° 0 mm 0 mps 746 mmHg 55%
    11:00 +33°C° 0 mm 0 mps 745 mmHg 52%
    12:00 +34°C° 0 mm 0 mps 744 mmHg 48%
    13:00 +35°C° 0 mm 0 mps 743 mmHg 44%
    14:00 +34°C° 0 mm 0 mps 742 mmHg 47%
    15:00 +34°C° 0 mm 0 mps 741 mmHg 50%
    16:00 +33°C° 0 mm 0 mps 741 mmHg 53%
    17:00 +31°C° 0 mm 0 mps 741 mmHg 58%
    18:00 +29°C° 0 mm 0 mps 742 mmHg 63%
    19:00 +27°C° 0 mm 0 mps 742 mmHg 68%
    20:00 +27°C° 0 mm 0 mps 742 mmHg 69%
    21:00 +27°C° 0 mm 0 mps 743 mmHg 70%
    22:00 +26°C° 0 mm 0 mps 743 mmHg 71%
    23:00 +26°C° 0 mm 0 mps 742 mmHg 72%

    17 November, Saturday

    Time Temperature Precipitation Wind Pressure Humidity
    00:00 +26°C° 0 mm 0 mps 742 mmHg 74%
    01:00 +25°C° 0 mm 0 mps 742 mmHg 75%
    02:00 +25°C° 0 mm 0 mps 742 mmHg 76%
    03:00 +25°C° 0 mm 0 mps 742 mmHg 78%
    04:00 +24°C° 0 mm 0 mps 742 mmHg 79%
    05:00 +26°C° 0 mm 0 mps 743 mmHg 76%
    06:00 +29°C° 0 mm 1 mps 743 mmHg 73%
    07:00 +30°C° 0 mm 1 mps 744 mmHg 70%
    08:00 +32°C° 0 mm 1 mps 744 mmHg 62%
    09:00 +35°C° 0 mm 1 mps 744 mmHg 54%
    10:00 +37°C° 0 mm 1 mps 744 mmHg 45%
    11:00 +37°C° 0 mm 1 mps 743 mmHg 45%
    12:00 +37°C° 0 mm 1 mps 742 mmHg 45%
    13:00 +37°C° 0 mm 1 mps 741 mmHg 44%
    14:00 +36°C° 0 mm 1 mps 741 mmHg 48%
    15:00 +34°C° 0 mm 0 mps 741 mmHg 51%
    16:00 +33°C° 0 mm 0 mps 740 mmHg 54%
    17:00 +32°C° 0 mm 0 mps 741 mmHg 57%
    18:00 +30°C° 0 mm 0 mps 741 mmHg 61%
    19:00 +29°C° 0 mm 0 mps 742 mmHg 65%
    20:00 +28°C° 0 mm 0 mps 742 mmHg 67%
    21:00 +28°C° 0 mm 0 mps 742 mmHg 70%
    22:00 +29°C° 0 mm 1 mps 742 mmHg 72%
    23:00 +26°C° 0.3 mm 0 mps 742 mmHg 78%

    18 November, Sunday

    Time Temperature Precipitation Wind Pressure Humidity
    00:00 +25°C° 0.3 mm 0 mps 742 mmHg 84%
    01:00 +24°C° 0.3 mm 0 mps 742 mmHg 89%
    02:00 +24°C° 1.2 mm 0 mps 742 mmHg 92%
    03:00 +24°C° 1.2 mm 0 mps 742 mmHg 94%
    04:00 +23°C° 1.2 mm 0 mps 742 mmHg 97%
    05:00 +24°C° 0 mm 0 mps 743 mmHg 94%
    06:00 +25°C° 0 mm 0 mps 743 mmHg 91%
    07:00 +26°C° 0 mm 0 mps 744 mmHg 89%
    08:00 +30°C° 0.7 mm 1 mps 744 mmHg 81%
    09:00 +32°C° 0.7 mm 1 mps 744 mmHg 74%
    10:00 +35°C° 0.7 mm 2 mps 743 mmHg 66%
    11:00 +36°C° 0.1 mm 2 mps 743 mmHg 59%
    12:00 +37°C° 0.1 mm 2 mps 742 mmHg 52%
    13:00 +38°C° 0.1 mm 2 mps 741 mmHg 45%
    14:00 +37°C° 0.5 mm 2 mps 741 mmHg 53%
    15:00 +35°C° 0.5 mm 2 mps 741 mmHg 61%
    16:00 +32°C° 0.5 mm 2 mps 740 mmHg 69%
    17:00 +31°C° 0 mm 2 mps 741 mmHg 74%
    18:00 +30°C° 0 mm 1 mps 741 mmHg 79%
    19:00 +29°C° 0 mm 1 mps 742 mmHg 84%
    20:00 +28°C° 0 mm 1 mps 742 mmHg 85%
    21:00 +28°C° 0 mm 1 mps 742 mmHg 85%
    22:00 +28°C° 0 mm 1 mps 743 mmHg 86%
    23:00 +27°C° 0.6 mm 1 mps 742 mmHg 89%

    19 November, Monday

    Time Temperature Precipitation Wind Pressure Humidity
    00:00 +25°C° 0.6 mm 0 mps 742 mmHg 91%
    01:00 +24°C° 0.6 mm 0 mps 742 mmHg 94%
    02:00 +24°C° 1.3 mm 0 mps 742 mmHg 94%
    03:00 +24°C° 1.3 mm 0 mps 742 mmHg 95%
    04:00 +24°C° 1.3 mm 0 mps 742 mmHg 95%
    05:00 +25°C° 0.2 mm 0 mps 743 mmHg 94%
    06:00 +25°C° 0.2 mm 0 mps 744 mmHg 93%
    07:00 +28°C° 0.2 mm 1 mps 744 mmHg 91%
    08:00 +29°C° 1.5 mm 1 mps 745 mmHg 91%
    09:00 +29°C° 1.5 mm 1 mps 745 mmHg 91%
    10:00 +30°C° 1.5 mm 1 mps 745 mmHg 91%
    11:00 +29°C° 1.6 mm 1 mps 744 mmHg 92%
    12:00 +29°C° 1.6 mm 1 mps 744 mmHg 92%
    13:00 +28°C° 1.6 mm 1 mps 743 mmHg 93%
    14:00 +28°C° 1.2 mm 1 mps 743 mmHg 94%
    15:00 +28°C° 1.2 mm 1 mps 742 mmHg 94%
    16:00 +27°C° 1.2 mm 1 mps 742 mmHg 95%
    17:00 +27°C° 0.6 mm 1 mps 743 mmHg 96%
    18:00 +26°C° 0.6 mm 1 mps 743 mmHg 96%
    19:00 +26°C° 0.6 mm 1 mps 744 mmHg 97%
    20:00 +26°C° 0.3 mm 1 mps 744 mmHg 98%
    21:00 +25°C° 0.3 mm 1 mps 745 mmHg 98%
    22:00 +25°C° 0.3 mm 1 mps 745 mmHg 98%
    23:00 +25°C° 0.2 mm 1 mps 745 mmHg 99%
    Show more